[[{"header":{"parameterUnit":"m.s-1","parameterCategory":2,"la1":30.2991,"la2":30.254,"lo1":-89.0895,"lo2":-89.0444,"dy":0.0017,"dx":0.0017,"nx":28,"ny":28,"refTime":"2025-11-11T03:00:00:Z","depth":"0","parameterNumber":2,"parameterNumberName":"U-component_of_CURRENTS"},"data":[0,0,0,0,0,0,0,0,0,0,0,0,0,0,0,0,0,0,0,0,0,0,0,0,0,0,0,0,0,0,0,0,0,0,0,0,0,0,0,0,0,0,0,0,0,0,0,0,0,0,0,0,0,0,0,0,0,0,-0.209,-0.2091,0,-0.2096,-0.2096,-0.2096,-0.2094,-0.2094,-0.2095,-0.2095,-0.2084,-0.2084,-0.2083,0,0,0,0,0,0,0,0,0,0,0,0,0,-0.2064,-0.2064,-0.209,-0.2091,-0.2091,-0.2096,-0.2096,-0.2096,-0.2094,-0.2094,-0.2095,-0.2095,-0.2084,-0.2084,-0.2083,0,0,0,0,0,0,0,0,0,0,0,0,0,-0.2071,-0.2064,-0.209,-0.2093,-0.2093,-0.2096,-0.2096,-0.2096,-0.2094,-0.2094,-0.2095,-0.2095,-0.2084,-0.2084,-0.2083,-0.2076,0,0,-0.2082,-0.2081,0,0,0,0,0,0,0,0,-0.207,-0.2071,-0.2092,-0.2093,-0.2093,-0.2097,-0.2083,-0.2089,-0.2094,-0.2091,-0.2095,-0.2095,-0.2088,-0.2088,-0.2085,-0.2076,-0.2076,-0.2082,-0.2081,-0.2081,-0.2081,0,0,0,0,0,0,0,-0.207,-0.2071,-0.209,-0.2092,-0.2093,-0.2089,-0.209,-0.2084,-0.2087,-0.2091,-0.2092,-0.2097,-0.2088,-0.2085,-0.2085,-0.2075,-0.2082,-0.2081,-0.2081,-0.208,-0.2096,-0.2097,0,0,0,0,0,0,-0.2075,-0.2071,-0.209,-0.2091,-0.2085,-0.2089,-0.209,-0.2093,-0.2087,-0.2087,-0.2096,-0.2096,-0.2086,-0.2085,-0.2084,-0.2095,-0.2081,-0.208,-0.208,-0.2096,-0.2097,-0.2097,0,0,0,0,0,0,-0.2074,-0.2076,-0.209,-0.2083,-0.2085,-0.209,-0.2093,-0.2094,-0.2094,-0.2091,-0.2091,-0.2097,-0.2086,-0.2085,-0.2084,-0.2094,-0.208,-0.208,-0.2095,-0.2096,-0.2097,-0.2105,0,0,0,0,0,0,-0.2073,-0.2076,-0.2075,-0.2083,-0.2085,-0.2095,-0.2093,-0.2094,-0.2097,-0.2097,-0.2092,-0.2091,-0.2087,-0.2085,-0.2083,-0.2093,-0.2079,-0.2094,-0.2095,-0.2097,-0.2104,-0.2106,-0.2108,0,0,0,0,0,-0.2072,-0.2074,-0.2075,-0.2078,-0.2086,-0.2095,-0.2096,-0.2098,-0.2097,-0.2098,-0.2096,-0.2091,-0.2094,-0.2084,-0.2083,-0.2093,-0.2093,-0.2095,-0.2097,-0.2103,-0.2106,-0.2108,0,0,0,0,0,0,-0.2062,-0.2075,-0.2076,-0.2081,-0.2089,-0.2096,-0.2096,-0.2099,-0.2097,-0.2096,-0.2092,-0.2091,-0.21,-0.2095,-0.2085,-0.2104,-0.2096,-0.2097,-0.2101,-0.2104,-0.2107,-0.2115,-0.2079,0,0,0,0,0,-0.206,-0.2062,-0.2076,-0.2078,-0.2084,-0.2089,-0.2092,-0.2096,-0.2099,-0.2098,-0.2095,-0.2097,-0.2106,-0.2102,-0.2108,-0.2107,-0.211,-0.2116,-0.2119,-0.212,-0.2128,-0.2145,-0.2149,-0.2103,-0.2103,-0.2103,0,0,-0.2055,-0.2063,-0.2063,-0.2076,-0.208,-0.209,-0.2091,-0.2098,-0.2107,-0.2097,-0.2101,-0.2105,-0.211,-0.2117,-0.2121,-0.2111,-0.2134,-0.2123,-0.2124,-0.2131,-0.2147,-0.2151,-0.2155,-0.2104,-0.2104,-0.2104,0,0,-0.205,-0.2055,-0.2057,-0.2067,-0.2079,-0.2088,-0.2092,-0.2101,-0.2106,-0.211,-0.2116,-0.2127,-0.2123,-0.2136,-0.2141,-0.216,-0.2152,-0.2159,-0.2168,-0.2184,-0.2187,-0.2191,-0.2193,-0.2196,-0.2153,-0.2153,-0.2153,0,-0.2043,-0.2049,-0.2059,-0.2067,-0.2075,-0.2089,-0.2096,-0.2107,-0.2114,-0.2122,-0.2114,-0.2137,-0.2138,-0.2162,-0.2169,-0.2166,-0.2164,-0.2154,-0.2186,-0.2189,-0.2193,-0.2194,-0.2198,-0.2153,-0.2153,-0.2153,-0.2153,0,-0.2043,-0.2047,-0.2051,-0.2066,-0.2077,-0.2085,-0.2107,-0.2118,-0.2124,-0.2135,-0.2158,-0.2163,-0.2176,-0.2182,-0.2177,-0.2206,-0.2194,-0.2191,-0.2176,-0.2198,-0.2198,-0.2202,-0.2154,-0.2154,-0.2154,-0.2154,0,0,-0.2029,-0.2046,-0.2048,-0.2051,-0.2077,-0.2086,-0.211,-0.2135,-0.2153,-0.2163,-0.2183,-0.2204,-0.2207,-0.2215,-0.2216,-0.2228,-0.2246,-0.2214,-0.2214,-0.2211,-0.2267,-0.2246,-0.2248,-0.2242,-0.2243,-0.2244,-0.2254,0,-0.2024,-0.2036,-0.2048,-0.2058,-0.2067,-0.209,-0.2112,-0.2139,-0.2159,-0.2183,-0.2205,-0.2223,-0.2219,-0.2222,-0.2237,-0.2249,-0.2258,-0.2243,-0.2251,-0.2251,-0.2227,-0.2253,-0.2165,-0.2166,-0.2257,-0.2258,-0.2258,0,-0.2021,-0.2029,-0.2039,-0.2056,-0.2062,-0.2072,-0.2111,-0.2128,-0.2175,-0.2192,-0.222,-0.2237,-0.2266,-0.2254,-0.2286,-0.2272,-0.2271,-0.2277,-0.2277,-0.2261,-0.2239,-0.2162,-0.2169,-0.2081,-0.2264,-0.2264,-0.2263,0,-0.2007,-0.2021,-0.2027,-0.2034,-0.2061,-0.2068,-0.2081,-0.2128,-0.2145,-0.2193,-0.2214,-0.2253,-0.2269,-0.2284,-0.23,-0.2288,-0.233,-0.2315,-0.2298,-0.2296,-0.2226,-0.2216,-0.2146,-0.2338,-0.2338,-0.2338,-0.2338,0,-0.1997,-0.1997,-0.2018,-0.202,-0.2022,-0.205,-0.2064,-0.2088,-0.2134,-0.2155,-0.2207,-0.2237,-0.2277,-0.2307,-0.231,-0.232,-0.2338,-0.2309,-0.2304,-0.2225,-0.2216,-0.2141,-0.2118,-0.2338,-0.2338,-0.2338,-0.2338,0,-0.1967,-0.1988,-0.1986,-0.2008,-0.2011,-0.2008,-0.203,-0.204,-0.2098,-0.2129,-0.2143,-0.2225,-0.2268,-0.2307,-0.2339,-0.233,-0.2281,-0.2338,-0.2241,-0.2224,-0.2117,-0.2099,-0.207,-0.1996,-0.2315,-0.2315,-0.2315,0,-0.1944,-0.1943,-0.1959,-0.1946,-0.1945,-0.195,-0.1949,-0.2005,-0.2019,-0.2117,-0.2124,-0.2202,-0.2239,-0.2295,-0.2317,-0.2331,-0.2262,-0.2234,-0.2204,-0.2106,-0.2082,-0.2075,-0.2013,-0.2108,-0.2106,-0.2104,-0.2103,0,-0.1879,-0.1891,-0.1886,-0.1869,-0.1859,-0.1855,-0.1861,-0.1878,-0.1949,-0.1996,-0.2058,-0.2105,-0.2205,-0.2204,-0.2245,-0.2234,-0.2131,-0.2201,-0.2122,-0.1939,-0.1905,-0.1831,-0.2101,-0.2088,-0.209,-0.2091,-0.2092,-0.2092,-0.1806,-0.1789,-0.1782,-0.1754,-0.1752,-0.1736,-0.1695,-0.1736,-0.1758,-0.1812,-0.1939,-0.2,-0.2061,-0.2127,-0.2107,-0.2016,-0.2063,-0.1925,-0.1919,-0.1928,-0.1833,-0.2074,-0.2045,-0.2046,-0.2047,-0.2048,-0.2049,0,-0.1697,-0.1685,-0.1655,-0.1616,-0.1569,-0.1607,-0.1606,-0.1565,-0.1553,-0.1689,-0.1747,-0.1873,-0.1853,-0.1892,-0.1862,-0.1748,-0.1693,-0.1658,-0.16,-0.1555,-0.1774,-0.1738,-0.1613,-0.1613,-0.1613,-0.1613,-0.1613,-0.1614,-0.1632,-0.1574,-0.1561,-0.1438,-0.1404,-0.1309,-0.1284,-0.1274,-0.1338,-0.1447,-0.1573,-0.1733,-0.1846,-0.1797,-0.1632,-0.1526,-0.1392,-0.1366,-0.1349,-0.1465,-0.1488,-0.151,-0.1468,-0.1289,-0.1289,-0.1072,-0.107,-0.1069]},{"header":{"parameterUnit":"m.s-1","parameterCategory":2,"la1":30.2991,"la2":30.254,"lo1":-89.0895,"lo2":-89.0444,"dy":0.0017,"dx":0.0017,"nx":28,"ny":28,"refTime":"2025-11-11T03:00:00:Z","depth":"0","parameterNumber":3,"parameterNumberName":"V-component_of_CURRENTS"},"data":[0,0,0,0,0,0,0,0,0,0,0,0,0,0,0,0,0,0,0,0,0,0,0,0,0,0,0,0,0,0,0,0,0,0,0,0,0,0,0,0,0,0,0,0,0,0,0,0,0,0,0,0,0,0,0,0,0,0,-0.0299,-0.0298,0,-0.0226,-0.0225,-0.0224,-0.0186,-0.0186,-0.0186,-0.0186,-0.0113,-0.0111,-0.0109,0,0,0,0,0,0,0,0,0,0,0,0,0,-0.0375,-0.0374,-0.0299,-0.0298,-0.0297,-0.0226,-0.0225,-0.0224,-0.0186,-0.0186,-0.0186,-0.0186,-0.0113,-0.0111,-0.0109,0,0,0,0,0,0,0,0,0,0,0,0,0,-0.0326,-0.0374,-0.0299,-0.027,-0.0266,-0.0226,-0.0225,-0.0224,-0.0186,-0.0186,-0.0186,-0.0186,-0.0114,-0.0111,-0.0108,-0.0092,0,0,-0.01,-0.0098,0,0,0,0,0,0,0,0,-0.0329,-0.0323,-0.0275,-0.0272,-0.0268,-0.0215,-0.0225,-0.0179,-0.0186,-0.0217,-0.0186,-0.0186,-0.0147,-0.0141,-0.0128,-0.0088,-0.0085,-0.0099,-0.0098,-0.0096,-0.0096,0,0,0,0,0,0,0,-0.0332,-0.0326,-0.027,-0.0274,-0.027,-0.025,-0.0243,-0.0216,-0.0183,-0.0214,-0.0211,-0.0203,-0.0145,-0.0131,-0.0126,-0.0084,-0.0099,-0.0097,-0.0095,-0.0094,-0.004,-0.0041,0,0,0,0,0,0,-0.0343,-0.0329,-0.0272,-0.0268,-0.0299,-0.0249,-0.0241,-0.0232,-0.0183,-0.0176,-0.0203,-0.0202,-0.0136,-0.0129,-0.0123,-0.0115,-0.0096,-0.0094,-0.0092,-0.004,-0.004,-0.0041,0,0,0,0,0,0,-0.0345,-0.0339,-0.0275,-0.0297,-0.0288,-0.0248,-0.0238,-0.0231,-0.0216,-0.0175,-0.0167,-0.0196,-0.0135,-0.0127,-0.0102,-0.0112,-0.0092,-0.009,-0.004,-0.004,-0.0041,-0.0091,0,0,0,0,0,0,-0.0347,-0.034,-0.034,-0.0298,-0.0287,-0.0257,-0.0237,-0.0229,-0.0211,-0.0209,-0.0166,-0.0159,-0.0135,-0.0107,-0.0099,-0.0107,-0.0087,-0.0039,-0.004,-0.004,-0.0089,-0.0093,-0.0097,0,0,0,0,0,-0.035,-0.0349,-0.034,-0.0333,-0.0287,-0.0257,-0.0249,-0.0221,-0.0211,-0.0207,-0.0179,-0.0161,-0.0105,-0.0104,-0.0096,-0.0103,-0.0039,-0.004,-0.004,-0.0087,-0.0092,-0.0096,0,0,0,0,0,0,-0.038,-0.0344,-0.0333,-0.0321,-0.0295,-0.0251,-0.0243,-0.0224,-0.0197,-0.0196,-0.0159,-0.015,-0.0133,-0.011,-0.011,-0.009,-0.0071,-0.007,-0.011,-0.0114,-0.0118,-0.0131,-0.0085,0,0,0,0,0,-0.0388,-0.0379,-0.0341,-0.0332,-0.0321,-0.0284,-0.0269,-0.0249,-0.0219,-0.0207,-0.0178,-0.0151,-0.0129,-0.0115,-0.0091,-0.0076,-0.0058,-0.0077,-0.0081,-0.0084,-0.0089,-0.0076,-0.008,-0.0043,-0.0043,-0.0043,0,0,-0.0398,-0.0376,-0.0372,-0.0339,-0.0316,-0.0306,-0.0275,-0.0254,-0.0249,-0.0203,-0.0189,-0.0161,-0.0128,-0.0113,-0.0105,-0.0095,-0.0084,-0.0085,-0.0088,-0.0092,-0.0077,-0.0081,-0.0084,-0.0043,-0.0043,-0.0043,0,0,-0.0412,-0.0394,-0.0392,-0.0374,-0.0344,-0.0322,-0.0319,-0.0279,-0.0265,-0.0244,-0.0216,-0.0196,-0.0156,-0.0139,-0.0124,-0.0134,-0.0105,-0.0126,-0.0155,-0.0143,-0.0146,-0.0148,-0.0126,-0.0126,-0.0128,-0.0128,-0.0128,0,-0.0427,-0.0419,-0.0387,-0.0382,-0.0374,-0.0334,-0.0335,-0.0314,-0.0273,-0.0266,-0.0248,-0.0199,-0.0171,-0.0159,-0.0162,-0.0144,-0.0127,-0.0141,-0.0149,-0.0151,-0.0152,-0.0129,-0.0129,-0.0131,-0.0131,-0.013,-0.013,0,-0.044,-0.0436,-0.0433,-0.0418,-0.0406,-0.0399,-0.0369,-0.0357,-0.0336,-0.0312,-0.0292,-0.025,-0.0223,-0.0212,-0.0188,-0.0188,-0.0168,-0.0156,-0.0139,-0.0159,-0.0133,-0.0132,-0.0134,-0.0133,-0.0133,-0.0132,0,0,-0.0476,-0.0448,-0.0451,-0.0455,-0.0427,-0.0421,-0.0415,-0.0399,-0.0401,-0.0359,-0.0358,-0.0316,-0.029,-0.0272,-0.024,-0.0226,-0.0221,-0.0199,-0.0197,-0.0182,-0.0185,-0.0163,-0.0159,-0.021,-0.021,-0.021,-0.0161,0,-0.05,-0.0503,-0.0482,-0.0497,-0.05,-0.0472,-0.0473,-0.0455,-0.043,-0.0418,-0.0374,-0.0356,-0.0314,-0.0302,-0.0282,-0.0235,-0.022,-0.0234,-0.0164,-0.0162,-0.0144,-0.0158,-0.0197,-0.0157,-0.016,-0.0159,-0.0159,0,-0.0532,-0.0528,-0.0541,-0.0544,-0.0544,-0.0546,-0.0548,-0.0541,-0.0512,-0.0492,-0.0461,-0.0422,-0.0387,-0.0354,-0.0284,-0.0294,-0.0247,-0.0209,-0.0206,-0.0168,-0.0138,-0.0137,-0.0154,-0.0101,-0.0157,-0.0157,-0.0157,0,-0.0584,-0.0581,-0.0595,-0.0593,-0.0581,-0.0588,-0.0585,-0.0565,-0.0568,-0.0537,-0.0536,-0.0478,-0.0453,-0.0389,-0.0298,-0.0294,-0.0221,-0.0206,-0.0142,-0.0139,-0.015,-0.0148,-0.0113,-0.0169,-0.0169,-0.0169,-0.017,0,-0.0628,-0.0643,-0.062,-0.0628,-0.0655,-0.0633,-0.0658,-0.0642,-0.0629,-0.0642,-0.0576,-0.0573,-0.0463,-0.0402,-0.0319,-0.0221,-0.0235,-0.015,-0.0129,-0.0167,-0.0168,-0.0102,-0.0042,-0.0168,-0.0168,-0.0168,-0.0169,0,-0.0682,-0.0667,-0.0683,-0.0674,-0.0677,-0.0695,-0.0704,-0.0725,-0.0701,-0.0716,-0.071,-0.0642,-0.0558,-0.0442,-0.0331,-0.0252,-0.0102,-0.0124,-0.0167,-0.0153,-0.0043,0.0016,0.0172,0.023,-0.0049,-0.0049,-0.0048,0,-0.0709,-0.0718,-0.0718,-0.0734,-0.0729,-0.0752,-0.0775,-0.0761,-0.0781,-0.0763,-0.0777,-0.0699,-0.0658,-0.0472,-0.0314,-0.0161,-0.0069,-0.01,-0.0101,-0.0045,0.0036,0.0129,0.0173,-0.0133,-0.0133,-0.0133,-0.0133,0,-0.0755,-0.0748,-0.0756,-0.0779,-0.0805,-0.0847,-0.0872,-0.0898,-0.0891,-0.0902,-0.0899,-0.0866,-0.0681,-0.054,-0.0318,-0.0213,-0.0031,-0.0096,-0.0036,-0.0024,0.0078,0.0145,-0.0145,-0.0134,-0.0134,-0.0134,-0.0134,-0.0134,-0.0786,-0.0796,-0.0798,-0.0821,-0.0867,-0.0931,-0.0972,-0.1006,-0.1046,-0.1078,-0.1021,-0.1002,-0.0757,-0.0456,-0.032,-0.0078,-0.0001,-0.0026,0.0043,0.0133,0.0186,-0.0095,-0.006,-0.0059,-0.0059,-0.0058,-0.0058,0,-0.0813,-0.0816,-0.0842,-0.0877,-0.0938,-0.095,-0.1031,-0.1082,-0.1143,-0.1183,-0.1189,-0.1032,-0.0782,-0.0508,-0.0136,0.002,0.0105,0.0106,0.0196,0.0235,-0.004,-0.0053,-0.0017,-0.0017,-0.0017,-0.0017,-0.0018,-0.0018,-0.0825,-0.0841,-0.084,-0.0922,-0.096,-0.1056,-0.1109,-0.1197,-0.1251,-0.1319,-0.1297,-0.1277,-0.0878,-0.0215,0.0134,0.0186,0.0335,0.036,0.0473,0.0223,0.0214,0.0206,0.0204,0.0294,0.0294,0.0706,0.071,0.0713]}],[{"header":{"parameterUnit":"m.s-1","parameterCategory":2,"la1":30.2991,"la2":30.254,"lo1":-89.0895,"lo2":-89.0444,"dy":0.0017,"dx":0.0017,"nx":28,"ny":28,"refTime":"2025-11-11T03:00:00:Z","depth":"2","parameterNumber":2,"parameterNumberName":"U-component_of_CURRENTS"},"data":[0,0,0,0,0,0,0,0,0,0,0,0,0,0,0,0,0,0,0,0,0,0,0,0,0,0,0,0,0,0,0,0,0,0,0,0,0,0,0,0,0,0,0,0,0,0,0,0,0,0,0,0,0,0,0,0,0,0,-0.2073,-0.2073,0,-0.208,-0.208,-0.208,-0.2079,-0.2079,-0.2079,-0.2079,-0.2071,-0.2071,-0.207,0,0,0,0,0,0,0,0,0,0,0,0,0,-0.2045,-0.2046,-0.2073,-0.2073,-0.2073,-0.208,-0.208,-0.208,-0.2079,-0.2079,-0.2079,-0.2079,-0.2071,-0.2071,-0.207,0,0,0,0,0,0,0,0,0,0,0,0,0,-0.2053,-0.2046,-0.2073,-0.2075,-0.2076,-0.208,-0.208,-0.208,-0.2078,-0.2079,-0.2079,-0.2079,-0.2071,-0.2071,-0.207,-0.2064,0,0,-0.2069,-0.2069,0,0,0,0,0,0,0,0,-0.2053,-0.2054,-0.2075,-0.2075,-0.2076,-0.2081,-0.2067,-0.2075,-0.2078,-0.2075,-0.2079,-0.2079,-0.2074,-0.2073,-0.2071,-0.2064,-0.2064,-0.2069,-0.2068,-0.2068,-0.2068,0,0,0,0,0,0,0,-0.2052,-0.2053,-0.2073,-0.2075,-0.2076,-0.2072,-0.2073,-0.2068,-0.2071,-0.2075,-0.2076,-0.208,-0.2074,-0.2072,-0.2071,-0.2064,-0.2069,-0.2068,-0.2068,-0.2068,-0.2088,-0.2089,0,0,0,0,0,0,-0.2057,-0.2053,-0.2073,-0.2074,-0.2067,-0.2073,-0.2074,-0.2077,-0.2072,-0.2072,-0.208,-0.208,-0.2072,-0.2072,-0.2071,-0.2084,-0.2068,-0.2068,-0.2068,-0.2087,-0.2088,-0.2089,0,0,0,0,0,0,-0.2056,-0.2058,-0.2073,-0.2065,-0.2067,-0.2073,-0.2077,-0.2077,-0.2078,-0.2076,-0.2076,-0.2082,-0.2072,-0.2071,-0.2072,-0.2082,-0.2068,-0.2067,-0.2086,-0.2088,-0.2089,-0.2096,0,0,0,0,0,0,-0.2055,-0.2058,-0.2058,-0.2066,-0.2068,-0.2079,-0.2077,-0.2077,-0.2082,-0.2082,-0.2077,-0.2077,-0.2073,-0.2073,-0.2071,-0.2082,-0.2067,-0.2085,-0.2087,-0.2088,-0.2095,-0.2098,-0.21,0,0,0,0,0,-0.2054,-0.2056,-0.2058,-0.206,-0.2069,-0.2079,-0.2079,-0.2082,-0.2082,-0.2083,-0.2082,-0.2077,-0.2082,-0.2072,-0.2071,-0.2081,-0.2085,-0.2086,-0.2088,-0.2094,-0.2097,-0.21,0,0,0,0,0,0,-0.2044,-0.2057,-0.2058,-0.2064,-0.2073,-0.208,-0.2081,-0.2084,-0.2083,-0.2083,-0.2079,-0.2078,-0.2089,-0.2083,-0.2073,-0.2094,-0.2086,-0.2088,-0.2091,-0.2094,-0.2096,-0.2104,-0.2067,0,0,0,0,0,-0.2042,-0.2045,-0.2059,-0.2062,-0.2068,-0.2074,-0.2077,-0.2081,-0.2085,-0.2085,-0.2082,-0.2085,-0.2094,-0.2092,-0.2098,-0.2098,-0.2102,-0.2109,-0.2111,-0.2113,-0.212,-0.2137,-0.2141,-0.2095,-0.2095,-0.2095,0,0,-0.2038,-0.2046,-0.2047,-0.206,-0.2064,-0.2075,-0.2075,-0.2084,-0.2093,-0.2083,-0.2089,-0.2094,-0.2099,-0.2108,-0.2112,-0.2102,-0.2127,-0.2115,-0.2116,-0.2123,-0.2139,-0.2144,-0.2147,-0.2096,-0.2096,-0.2096,0,0,-0.2033,-0.204,-0.2042,-0.2052,-0.2065,-0.2073,-0.2078,-0.2088,-0.2093,-0.2099,-0.2104,-0.2116,-0.2114,-0.2127,-0.2133,-0.2152,-0.2145,-0.2153,-0.2162,-0.2177,-0.2181,-0.2184,-0.2186,-0.219,-0.2146,-0.2146,-0.2146,0,-0.2028,-0.2033,-0.2044,-0.2052,-0.206,-0.2075,-0.2083,-0.2094,-0.2102,-0.211,-0.2103,-0.2127,-0.213,-0.2154,-0.2161,-0.2159,-0.2157,-0.2146,-0.218,-0.2183,-0.2186,-0.2188,-0.2191,-0.2147,-0.2147,-0.2147,-0.2147,0,-0.2028,-0.2033,-0.2036,-0.2052,-0.2064,-0.2072,-0.2095,-0.2106,-0.2113,-0.2125,-0.2148,-0.2154,-0.2168,-0.2174,-0.217,-0.2199,-0.2187,-0.2185,-0.2169,-0.2191,-0.2191,-0.2195,-0.2148,-0.2148,-0.2147,-0.2147,0,0,-0.2015,-0.2032,-0.2034,-0.2037,-0.2064,-0.2073,-0.2098,-0.2123,-0.2141,-0.2153,-0.2173,-0.2195,-0.2199,-0.2206,-0.2209,-0.222,-0.2239,-0.2207,-0.2208,-0.2204,-0.226,-0.2238,-0.2239,-0.2236,-0.2237,-0.2237,-0.2247,0,-0.201,-0.2022,-0.2034,-0.2045,-0.2054,-0.2078,-0.21,-0.2127,-0.2149,-0.2173,-0.2195,-0.2214,-0.2211,-0.2214,-0.223,-0.2242,-0.2251,-0.2236,-0.2245,-0.2245,-0.2218,-0.2244,-0.2021,-0.201,-0.2251,-0.2251,-0.2252,0,-0.2008,-0.2016,-0.2027,-0.2043,-0.205,-0.206,-0.2099,-0.2117,-0.2164,-0.2181,-0.221,-0.2228,-0.2257,-0.2246,-0.2278,-0.2265,-0.2265,-0.227,-0.2271,-0.2252,-0.223,-0.2029,-0.2007,-0.2258,-0.2257,-0.2257,-0.2256,0,-0.1996,-0.201,-0.2017,-0.2023,-0.205,-0.2058,-0.207,-0.2117,-0.2135,-0.2183,-0.2205,-0.2243,-0.226,-0.2276,-0.2292,-0.2281,-0.2323,-0.2308,-0.229,-0.2287,-0.2102,-0.2083,-0.2332,-0.2332,-0.2332,-0.2332,-0.2332,0,-0.1987,-0.1988,-0.2008,-0.2011,-0.2013,-0.2041,-0.2055,-0.2079,-0.2124,-0.2145,-0.2198,-0.2227,-0.2268,-0.2298,-0.2302,-0.2311,-0.233,-0.2301,-0.2295,-0.2099,-0.208,-0.2301,-0.2297,-0.2332,-0.2332,-0.2332,-0.2332,0,-0.1961,-0.1982,-0.198,-0.2001,-0.2004,-0.2002,-0.2021,-0.2032,-0.2089,-0.212,-0.2134,-0.2215,-0.2258,-0.2297,-0.233,-0.2321,-0.2333,-0.2328,-0.2095,-0.2063,-0.228,-0.2277,-0.2305,-0.2304,-0.2303,-0.2303,-0.2303,0,-0.1939,-0.1939,-0.1955,-0.1942,-0.1941,-0.1946,-0.1944,-0.1998,-0.2011,-0.2107,-0.2114,-0.2191,-0.2224,-0.2279,-0.2265,-0.2269,-0.2331,-0.208,-0.2032,-0.2289,-0.2281,-0.2278,-0.2275,-0.1777,-0.1772,-0.1768,-0.1765,0,-0.1877,-0.1889,-0.1884,-0.1867,-0.1857,-0.1853,-0.1857,-0.1873,-0.1942,-0.1984,-0.2043,-0.2085,-0.2151,-0.2065,-0.2091,-0.2066,-0.2063,-0.2007,-0.2321,-0.1838,-0.1798,-0.1788,-0.1801,-0.1731,-0.1735,-0.1737,-0.1739,-0.174,-0.1807,-0.179,-0.1783,-0.1755,-0.1752,-0.1735,-0.1694,-0.1724,-0.1739,-0.1761,-0.1889,-0.1881,-0.1915,-0.185,-0.1791,-0.1751,-0.1917,-0.1812,-0.182,-0.1833,-0.1791,-0.1754,-0.1669,-0.1672,-0.1675,-0.1677,-0.1679,0,-0.1699,-0.1688,-0.1658,-0.1619,-0.1569,-0.1608,-0.1606,-0.1551,-0.152,-0.1586,-0.1608,-0.1496,-0.1445,-0.1494,-0.1376,-0.1393,-0.1341,-0.1333,-0.1231,-0.1266,-0.1297,-0.1224,-0.0954,-0.0952,-0.095,-0.0948,0,0,-0.1635,-0.1578,-0.1565,-0.1441,-0.1407,-0.131,-0.1284,-0.1242,-0.1251,-0.1224,-0.1217,-0.1332,-0.1425,-0.1162,-0.1129,-0.1015,-0.1122,-0.0963,-0.1542,-0.1454,-0.1482,-0.1573,-0.1502,0,0,0,0,0]},{"header":{"parameterUnit":"m.s-1","parameterCategory":2,"la1":30.2991,"la2":30.254,"lo1":-89.0895,"lo2":-89.0444,"dy":0.0017,"dx":0.0017,"nx":28,"ny":28,"refTime":"2025-11-11T03:00:00:Z","depth":"2","parameterNumber":3,"parameterNumberName":"V-component_of_CURRENTS"},"data":[0,0,0,0,0,0,0,0,0,0,0,0,0,0,0,0,0,0,0,0,0,0,0,0,0,0,0,0,0,0,0,0,0,0,0,0,0,0,0,0,0,0,0,0,0,0,0,0,0,0,0,0,0,0,0,0,0,0,-0.0222,-0.0221,0,-0.0151,-0.015,-0.0149,-0.0112,-0.0111,-0.0111,-0.0111,-0.0038,-0.0037,-0.0035,0,0,0,0,0,0,0,0,0,0,0,0,0,-0.0296,-0.0295,-0.0222,-0.0221,-0.0221,-0.0151,-0.015,-0.0149,-0.0112,-0.0111,-0.0111,-0.0111,-0.0039,-0.0037,-0.0034,0,0,0,0,0,0,0,0,0,0,0,0,0,-0.0248,-0.0294,-0.0222,-0.0194,-0.019,-0.0151,-0.015,-0.0149,-0.0112,-0.0111,-0.0111,-0.0111,-0.004,-0.0037,-0.0034,-0.0018,0,0,-0.0025,-0.0024,0,0,0,0,0,0,0,0,-0.0251,-0.0245,-0.0199,-0.0196,-0.0192,-0.014,-0.0149,-0.0105,-0.0112,-0.0141,-0.0111,-0.0111,-0.0072,-0.0067,-0.0053,-0.0015,-0.0011,-0.0025,-0.0023,-0.0022,-0.0021,0,0,0,0,0,0,0,-0.0254,-0.0248,-0.0194,-0.0198,-0.0194,-0.0174,-0.0167,-0.014,-0.0108,-0.0139,-0.0136,-0.0128,-0.007,-0.0056,-0.0051,-0.001,-0.0025,-0.0023,-0.0021,-0.002,0.0032,0.0031,0,0,0,0,0,0,-0.0265,-0.0251,-0.0196,-0.0192,-0.0222,-0.0173,-0.0165,-0.0157,-0.0108,-0.0101,-0.0128,-0.0127,-0.0061,-0.0055,-0.0049,-0.0042,-0.0022,-0.002,-0.0018,0.0032,0.0031,0.0031,0,0,0,0,0,0,-0.0267,-0.0261,-0.0199,-0.022,-0.0211,-0.0172,-0.0162,-0.0155,-0.0142,-0.01,-0.0093,-0.0122,-0.0061,-0.0053,-0.0029,-0.0039,-0.0018,-0.0016,0.0032,0.0032,0.0031,-0.002,0,0,0,0,0,0,-0.0269,-0.0262,-0.0262,-0.0221,-0.021,-0.0182,-0.0162,-0.0154,-0.0137,-0.0135,-0.0093,-0.0086,-0.006,-0.0033,-0.0026,-0.0035,-0.0013,0.0033,0.0032,0.0031,-0.0018,-0.0022,-0.0026,0,0,0,0,0,-0.0272,-0.0271,-0.0263,-0.0256,-0.0211,-0.0182,-0.0175,-0.0146,-0.0137,-0.0134,-0.0106,-0.0087,-0.0032,-0.0031,-0.0022,-0.003,0.0033,0.0032,0.0031,-0.0016,-0.0021,-0.0026,0,0,0,0,0,0,-0.0302,-0.0266,-0.0256,-0.0244,-0.0219,-0.0176,-0.0169,-0.015,-0.0125,-0.0123,-0.0086,-0.0077,-0.0061,-0.0038,-0.0037,-0.0018,0.0001,0.0002,-0.0038,-0.0042,-0.0046,-0.0059,-0.0011,0,0,0,0,0,-0.031,-0.0302,-0.0265,-0.0257,-0.0246,-0.021,-0.0195,-0.0176,-0.0146,-0.0135,-0.0106,-0.0079,-0.0057,-0.0044,-0.0019,-0.0005,0.0013,-0.0006,-0.0011,-0.0014,-0.0019,-0.0006,-0.001,0.0029,0.0029,0.0029,0,0,-0.032,-0.0299,-0.0295,-0.0263,-0.0241,-0.0231,-0.0201,-0.0182,-0.0176,-0.0131,-0.0118,-0.009,-0.0056,-0.0042,-0.0034,-0.0024,-0.0014,-0.0015,-0.0018,-0.0021,-0.0007,-0.0011,-0.0014,0.0028,0.0028,0.0028,0,0,-0.0335,-0.0318,-0.0316,-0.03,-0.027,-0.0249,-0.0247,-0.0208,-0.0194,-0.0174,-0.0146,-0.0127,-0.0087,-0.0069,-0.0054,-0.0065,-0.0036,-0.0058,-0.0087,-0.0075,-0.0078,-0.0081,-0.006,-0.006,-0.006,-0.006,-0.006,0,-0.0351,-0.0343,-0.0312,-0.0307,-0.03,-0.0261,-0.0263,-0.0242,-0.0202,-0.0196,-0.0178,-0.013,-0.0102,-0.009,-0.0094,-0.0076,-0.0059,-0.0072,-0.0081,-0.0083,-0.0085,-0.0063,-0.0062,-0.0063,-0.0062,-0.0062,-0.0062,0,-0.0364,-0.036,-0.0358,-0.0343,-0.0332,-0.0326,-0.0297,-0.0286,-0.0266,-0.0243,-0.0222,-0.0181,-0.0155,-0.0144,-0.012,-0.012,-0.0101,-0.0088,-0.0071,-0.0092,-0.0067,-0.0066,-0.0066,-0.0065,-0.0065,-0.0064,0,0,-0.0399,-0.0372,-0.0376,-0.0379,-0.0353,-0.0348,-0.0343,-0.0327,-0.033,-0.0289,-0.0288,-0.0247,-0.0222,-0.0204,-0.0172,-0.0159,-0.0155,-0.0132,-0.013,-0.0116,-0.0121,-0.01,-0.0096,-0.0144,-0.0144,-0.0144,-0.0098,0,-0.0423,-0.0426,-0.0406,-0.0422,-0.0425,-0.0398,-0.04,-0.0383,-0.0359,-0.0348,-0.0304,-0.0287,-0.0245,-0.0235,-0.0215,-0.0168,-0.0154,-0.0168,-0.0099,-0.0097,-0.0079,-0.0095,-0.0075,-0.0031,-0.0096,-0.0096,-0.0096,0,-0.0454,-0.0451,-0.0465,-0.0467,-0.0468,-0.0471,-0.0474,-0.0468,-0.044,-0.0421,-0.0391,-0.0352,-0.0319,-0.0286,-0.0218,-0.0227,-0.0182,-0.0145,-0.0142,-0.0104,-0.0074,-0.0021,-0.0026,-0.0093,-0.0093,-0.0094,-0.0094,0,-0.0507,-0.0503,-0.0518,-0.0517,-0.0505,-0.0513,-0.051,-0.0492,-0.0495,-0.0465,-0.0465,-0.0409,-0.0385,-0.0322,-0.0233,-0.0229,-0.0158,-0.0142,-0.008,-0.0077,-0.0038,-0.0032,-0.0107,-0.0107,-0.0107,-0.0107,-0.0107,0,-0.055,-0.0566,-0.0543,-0.0552,-0.0578,-0.0558,-0.0584,-0.0568,-0.0557,-0.057,-0.0506,-0.0502,-0.0395,-0.0335,-0.0254,-0.0158,-0.0172,-0.0089,-0.0068,-0.0054,-0.005,-0.0086,-0.0084,-0.0105,-0.0106,-0.0106,-0.0106,0,-0.0605,-0.059,-0.0608,-0.0599,-0.0601,-0.0621,-0.063,-0.0651,-0.0628,-0.0644,-0.0638,-0.0572,-0.049,-0.0375,-0.0267,-0.0189,-0.0099,-0.0064,-0.0048,-0.0027,-0.0021,-0.0023,0.0006,0.0007,0.0007,0.0008,0.0009,0,-0.0633,-0.0643,-0.0643,-0.066,-0.0656,-0.0678,-0.0702,-0.0688,-0.0707,-0.0691,-0.0705,-0.0629,-0.0587,-0.0404,-0.0233,-0.0079,-0.0084,0.0019,0.0026,-0.0029,-0.0012,-0.0014,-0.0017,0.0064,0.0065,0.0066,0.0066,0,-0.068,-0.0675,-0.0683,-0.0706,-0.0732,-0.0773,-0.0798,-0.0824,-0.0817,-0.0824,-0.0822,-0.0787,-0.0593,-0.0406,-0.0182,-0.0085,-0.0001,0.004,-0.0021,0.0027,0.0029,0.0045,0.004,0.0074,0.0073,0.0073,0.0072,0.0072,-0.0713,-0.0724,-0.0726,-0.0748,-0.0795,-0.0857,-0.0898,-0.091,-0.0942,-0.0927,-0.0898,-0.0804,-0.061,-0.028,-0.0108,0.0079,0.0047,0.0105,0.0102,0.0098,0.0091,0.0093,0.015,0.015,0.015,0.0149,0.0149,0,-0.0727,-0.0742,-0.0768,-0.0801,-0.0845,-0.0876,-0.0957,-0.0959,-0.0985,-0.0952,-0.0918,-0.069,-0.0473,-0.0258,0.0038,0.0179,0.0188,0.0215,0.02,0.0192,0.0185,0.0182,0.0266,0.0266,0.0267,0.0268,0,0,-0.0736,-0.0745,-0.0742,-0.0811,-0.0861,-0.0928,-0.0981,-0.0985,-0.0957,-0.0912,-0.0833,-0.0719,-0.0475,-0.0238,-0.0036,0.0122,0.0118,0.0148,0.004,-0.0009,-0.0018,0.0109,0.0093,0,0,0,0,0]}],[{"header":{"parameterUnit":"m.s-1","parameterCategory":2,"la1":30.2991,"la2":30.254,"lo1":-89.0895,"lo2":-89.0444,"dy":0.0017,"dx":0.0017,"nx":28,"ny":28,"refTime":"2025-11-11T03:00:00:Z","depth":"4","parameterNumber":2,"parameterNumberName":"U-component_of_CURRENTS"},"data":[0,0,0,0,0,0,0,0,0,0,0,0,0,0,0,0,0,0,0,0,0,0,0,0,0,0,0,0,0,0,0,0,0,0,0,0,0,0,0,0,0,0,0,0,0,0,0,0,0,0,0,0,0,0,0,0,0,0,-0.1441,-0.1442,0,-0.1495,-0.1496,-0.1496,-0.1533,-0.1533,-0.1534,-0.1534,-0.1597,-0.1599,-0.16,0,0,0,0,0,0,0,0,0,0,0,0,0,-0.1371,-0.1372,-0.1441,-0.1442,-0.1443,-0.1495,-0.1496,-0.1496,-0.1533,-0.1533,-0.1534,-0.1534,-0.1597,-0.1598,-0.16,0,0,0,0,0,0,0,0,0,0,0,0,0,-0.1409,-0.1372,-0.1441,-0.1468,-0.1471,-0.1495,-0.1496,-0.1496,-0.1533,-0.1534,-0.1534,-0.1535,-0.1596,-0.1598,-0.16,-0.16,0,0,-0.1606,-0.1607,0,0,0,0,0,0,0,0,-0.1407,-0.1412,-0.1464,-0.1467,-0.147,-0.1509,-0.1494,-0.1532,-0.1533,-0.1508,-0.1534,-0.1535,-0.1569,-0.1573,-0.158,-0.1603,-0.1606,-0.1606,-0.1608,-0.1608,-0.1609,0,0,0,0,0,0,0,-0.1404,-0.141,-0.1461,-0.1464,-0.1468,-0.1478,-0.1484,-0.1501,-0.1534,-0.151,-0.1514,-0.1521,-0.1571,-0.1578,-0.1582,-0.1607,-0.1606,-0.1608,-0.1609,-0.161,-0.1713,-0.1715,0,0,0,0,0,0,-0.14,-0.1407,-0.1459,-0.1463,-0.1441,-0.1479,-0.1486,-0.1495,-0.1534,-0.154,-0.1521,-0.1523,-0.1574,-0.158,-0.1584,-0.1645,-0.1608,-0.161,-0.1611,-0.1712,-0.1714,-0.1715,0,0,0,0,0,0,-0.1398,-0.1404,-0.1457,-0.1437,-0.1445,-0.148,-0.149,-0.1496,-0.1528,-0.1542,-0.1548,-0.155,-0.1575,-0.1582,-0.1622,-0.1645,-0.1611,-0.1613,-0.171,-0.1712,-0.1715,-0.1728,0,0,0,0,0,0,-0.1396,-0.1403,-0.142,-0.1437,-0.1446,-0.1485,-0.1489,-0.1496,-0.1531,-0.1535,-0.1568,-0.1573,-0.1576,-0.1619,-0.1624,-0.1647,-0.1614,-0.1708,-0.1711,-0.1714,-0.1726,-0.1731,-0.1735,0,0,0,0,0,-0.1393,-0.1409,-0.142,-0.1427,-0.1464,-0.1486,-0.1492,-0.1517,-0.1532,-0.1548,-0.1574,-0.1574,-0.1641,-0.1622,-0.1627,-0.1652,-0.1707,-0.171,-0.1714,-0.1724,-0.173,-0.1735,0,0,0,0,0,0,-0.139,-0.1415,-0.1427,-0.1452,-0.1475,-0.1493,-0.1515,-0.1531,-0.1565,-0.1577,-0.1589,-0.1596,-0.1642,-0.1648,-0.1626,-0.1693,-0.1676,-0.1681,-0.1682,-0.1688,-0.1692,-0.1692,-0.1616,0,0,0,0,0,-0.1396,-0.1416,-0.1438,-0.1461,-0.1474,-0.1499,-0.1517,-0.1535,-0.1561,-0.1577,-0.1601,-0.163,-0.1657,-0.1674,-0.1698,-0.1729,-0.1729,-0.1753,-0.1757,-0.1761,-0.1766,-0.1786,-0.1792,-0.1727,-0.1727,-0.1727,0,0,-0.1402,-0.1419,-0.1432,-0.1462,-0.1483,-0.1505,-0.1512,-0.1546,-0.1571,-0.1578,-0.1628,-0.165,-0.1671,-0.1709,-0.173,-0.1718,-0.1778,-0.1765,-0.1768,-0.1771,-0.179,-0.1796,-0.1802,-0.1729,-0.1729,-0.1728,0,0,-0.1412,-0.1439,-0.1455,-0.1476,-0.1511,-0.1526,-0.1541,-0.1574,-0.16,-0.1642,-0.1658,-0.1696,-0.1735,-0.1754,-0.1767,-0.1815,-0.1805,-0.1827,-0.1845,-0.1864,-0.1869,-0.1873,-0.187,-0.1874,-0.1825,-0.1826,-0.1826,0,-0.1421,-0.144,-0.1464,-0.1483,-0.1505,-0.1538,-0.1559,-0.1588,-0.1633,-0.1656,-0.1664,-0.1736,-0.1756,-0.1798,-0.1816,-0.1824,-0.1824,-0.1816,-0.1868,-0.1872,-0.1877,-0.1872,-0.1876,-0.1827,-0.1826,-0.1826,-0.1826,0,-0.1429,-0.1458,-0.1471,-0.1504,-0.1532,-0.1558,-0.1596,-0.1634,-0.1669,-0.1694,-0.1754,-0.1781,-0.182,-0.1837,-0.184,-0.1886,-0.1872,-0.1871,-0.1847,-0.1883,-0.1877,-0.1881,-0.1828,-0.1828,-0.1827,-0.1827,0,0,-0.1404,-0.1465,-0.147,-0.1492,-0.1547,-0.1565,-0.1618,-0.1664,-0.17,-0.1749,-0.179,-0.1844,-0.1861,-0.1879,-0.1892,-0.1912,-0.194,-0.1905,-0.1905,-0.1889,-0.1966,-0.1838,-0.1829,-0.1944,-0.1945,-0.1946,-0.1944,0,-0.1401,-0.1433,-0.1472,-0.1515,-0.1531,-0.159,-0.1634,-0.1685,-0.1731,-0.178,-0.1822,-0.1867,-0.1875,-0.1896,-0.192,-0.194,-0.1953,-0.1939,-0.1945,-0.1945,-0.1815,-0.1831,-0.195,-0.1947,-0.1948,-0.1949,-0.1949,0,-0.1376,-0.1405,-0.144,-0.1514,-0.1531,-0.1569,-0.1641,-0.1687,-0.1764,-0.1801,-0.1852,-0.1885,-0.1933,-0.1931,-0.1977,-0.1966,-0.197,-0.1978,-0.1978,-0.1857,-0.1824,-0.1908,-0.1956,-0.1956,-0.1955,-0.1955,-0.1954,0,-0.1305,-0.1377,-0.1405,-0.1428,-0.1517,-0.1557,-0.161,-0.169,-0.1733,-0.1811,-0.1846,-0.1906,-0.1938,-0.1963,-0.1986,-0.1984,-0.2021,-0.2017,-0.1904,-0.1895,-0.2004,-0.2,-0.2045,-0.2045,-0.2045,-0.2045,-0.2045,0,-0.126,-0.1288,-0.1379,-0.1392,-0.1441,-0.1519,-0.1579,-0.1641,-0.1727,-0.1768,-0.1848,-0.1877,-0.195,-0.198,-0.1991,-0.1949,-0.2023,-0.1904,-0.1886,-0.201,-0.2006,-0.2006,-0.2001,-0.2045,-0.2045,-0.2045,-0.2045,0,-0.1176,-0.1234,-0.1272,-0.1371,-0.1405,-0.1438,-0.1556,-0.1585,-0.1688,-0.1741,-0.1767,-0.1863,-0.1893,-0.1945,-0.1984,-0.1936,-0.1924,-0.1893,-0.2011,-0.2001,-0.1782,-0.1779,-0.1754,-0.175,-0.1746,-0.1743,-0.174,0,-0.1137,-0.1142,-0.1238,-0.1251,-0.1301,-0.1371,-0.1406,-0.1538,-0.1571,-0.1712,-0.1715,-0.1794,-0.184,-0.1784,-0.1856,-0.1851,-0.1841,-0.1812,-0.1804,-0.1767,-0.1753,-0.1756,-0.1758,-0.1734,-0.1733,-0.1732,-0.1731,0,-0.1061,-0.1098,-0.113,-0.1154,-0.1192,-0.1245,-0.1316,-0.1334,-0.1473,-0.1587,-0.1614,-0.164,-0.167,-0.1695,-0.1702,-0.1705,-0.1817,-0.1772,-0.178,-0.1772,-0.1742,-0.1733,-0.1739,-0.1718,-0.172,-0.1721,-0.1722,0,-0.1002,-0.1003,-0.1032,-0.1047,-0.1082,-0.1091,-0.1158,-0.1204,-0.127,-0.1438,-0.1441,-0.154,-0.1642,-0.1619,-0.163,-0.1615,-0.1597,-0.1544,-0.1563,-0.1579,-0.1525,-0.1461,-0.1329,0,0,0,0,0,-0.0935,-0.0918,-0.0919,-0.0927,-0.0949,-0.0978,-0.1076,-0.1149,-0.1293,-0.1264,-0.1356,-0.1382,-0.1409,-0.1464,-0.1414,-0.1551,-0.1598,-0.1486,-0.1545,-0.1644,-0.1659,-0.1613,0,0,0,0,0,0,-0.0884,-0.0885,-0.0884,-0.0814,-0.079,-0.0819,-0.0875,-0.0977,-0.0985,-0.1135,-0.1155,-0.1278,-0.1322,-0.1406,-0.1376,-0.1393,-0.1398,-0.156,-0.1556,-0.1635,-0.1649,-0.1661,-0.162,0,0,0,0,0]},{"header":{"parameterUnit":"m.s-1","parameterCategory":2,"la1":30.2991,"la2":30.254,"lo1":-89.0895,"lo2":-89.0444,"dy":0.0017,"dx":0.0017,"nx":28,"ny":28,"refTime":"2025-11-11T03:00:00:Z","depth":"4","parameterNumber":3,"parameterNumberName":"V-component_of_CURRENTS"},"data":[0,0,0,0,0,0,0,0,0,0,0,0,0,0,0,0,0,0,0,0,0,0,0,0,0,0,0,0,0,0,0,0,0,0,0,0,0,0,0,0,0,0,0,0,0,0,0,0,0,0,0,0,0,0,0,0,0,0,0.0026,0.0026,0,0.0066,0.0067,0.0067,0.0102,0.0103,0.0103,0.0103,0.0164,0.0165,0.0167,0,0,0,0,0,0,0,0,0,0,0,0,0,-0.0004,-0.0004,0.0026,0.0026,0.0027,0.0066,0.0067,0.0068,0.0102,0.0103,0.0103,0.0104,0.0164,0.0165,0.0167,0,0,0,0,0,0,0,0,0,0,0,0,0,0.002,-0.0004,0.0026,0.0048,0.0051,0.0066,0.0067,0.0068,0.0102,0.0103,0.0103,0.0104,0.0163,0.0165,0.0167,0.0169,0,0,0.0173,0.0174,0,0,0,0,0,0,0,0,0.0019,0.0021,0.0044,0.0047,0.0049,0.0079,0.0079,0.0102,0.0102,0.0083,0.0103,0.0104,0.0137,0.0141,0.0148,0.0172,0.0174,0.0173,0.0174,0.0175,0.0176,0,0,0,0,0,0,0,0.0017,0.002,0.0042,0.0045,0.0048,0.0063,0.0066,0.0083,0.0107,0.0085,0.0087,0.0091,0.0139,0.0146,0.015,0.0175,0.0173,0.0175,0.0176,0.0177,0.0197,0.0197,0,0,0,0,0,0,0.0009,0.0018,0.0041,0.0043,0.0034,0.0063,0.0067,0.007,0.0107,0.0113,0.009,0.0092,0.0142,0.0147,0.0152,0.015,0.0175,0.0177,0.0178,0.0198,0.0197,0.0196,0,0,0,0,0,0,0.0009,0.0011,0.0039,0.0031,0.0036,0.0062,0.0065,0.007,0.0078,0.0111,0.0117,0.0093,0.0143,0.0149,0.0164,0.0153,0.0178,0.018,0.0199,0.0198,0.0197,0.015,0,0,0,0,0,0,0.0007,0.001,0.0007,0.0031,0.0036,0.0045,0.0065,0.0071,0.0079,0.0082,0.0115,0.0122,0.0144,0.016,0.0165,0.0156,0.0181,0.0199,0.0198,0.0197,0.0152,0.0147,0.0143,0,0,0,0,0,0.0006,0.0002,0.0007,0.001,0.0032,0.0045,0.0049,0.007,0.0079,0.0079,0.01,0.0121,0.0156,0.0161,0.0168,0.0158,0.02,0.0198,0.0197,0.0154,0.0148,0.0143,0,0,0,0,0,0,-0.0011,0.0005,0.0012,0.0013,0.0025,0.005,0.0052,0.0065,0.0082,0.0085,0.0116,0.0123,0.0131,0.0149,0.0154,0.016,0.018,0.018,0.0145,0.014,0.0136,0.0128,0.0183,0,0,0,0,0,-0.0018,-0.0018,0.0001,0.0,0.0005,0.0026,0.0033,0.0047,0.0065,0.0073,0.0095,0.0115,0.0129,0.0139,0.0156,0.016,0.0176,0.0156,0.0152,0.0148,0.0145,0.0152,0.0148,0.0192,0.0192,0.0192,0,0,-0.0026,-0.0017,-0.0017,-0.0004,0.0008,0.0009,0.0032,0.004,0.0039,0.0077,0.0082,0.0102,0.0127,0.0132,0.0137,0.0146,0.0145,0.0146,0.0143,0.0142,0.015,0.0146,0.0142,0.0191,0.0191,0.0191,0,0,-0.0038,-0.0033,-0.0036,-0.003,-0.0018,-0.0006,-0.0007,0.0014,0.0022,0.003,0.0053,0.0064,0.009,0.0102,0.0113,0.0093,0.0122,0.0098,0.007,0.0076,0.0073,0.007,0.0088,0.0087,0.0095,0.0095,0.0095,0,-0.0049,-0.0048,-0.0035,-0.0038,-0.0039,-0.0017,-0.0023,-0.0013,0.0008,0.0009,0.0025,0.0053,0.0074,0.0077,0.0071,0.0083,0.0096,0.0089,0.007,0.0068,0.0066,0.0085,0.0084,0.0092,0.0093,0.0093,0.0093,0,-0.0058,-0.0064,-0.0066,-0.0065,-0.0067,-0.0067,-0.0057,-0.0057,-0.0045,-0.0033,-0.0025,0.0003,0.0019,0.0025,0.0044,0.0036,0.0055,0.0065,0.0083,0.0058,0.008,0.0081,0.0089,0.009,0.0091,0.0091,0,0,-0.0062,-0.0072,-0.0071,-0.0083,-0.0082,-0.0084,-0.0095,-0.0094,-0.0103,-0.0079,-0.0086,-0.006,-0.0043,-0.0031,-0.0008,-0.0001,-0.0003,0.0023,0.0024,0.0039,0.002,0.0032,0.0034,0.0004,0.0004,0.0003,0.0042,0,-0.0071,-0.0081,-0.009,-0.0112,-0.0117,-0.0122,-0.014,-0.0141,-0.0131,-0.0132,-0.0105,-0.0098,-0.0065,-0.006,-0.0049,-0.0013,-0.0004,-0.0013,0.0042,0.0044,0.0057,0.0034,0.0002,0.0043,0.0043,0.0043,0.0043,0,-0.0067,-0.0079,-0.0095,-0.0139,-0.0145,-0.0163,-0.0188,-0.0202,-0.0202,-0.0196,-0.018,-0.0154,-0.0136,-0.0108,-0.006,-0.0066,-0.003,-0.0,0.0002,0.003,0.0057,0.0073,0.0044,0.0044,0.0044,0.0044,0.0044,0,-0.0051,-0.0085,-0.0099,-0.0109,-0.015,-0.0173,-0.0201,-0.0216,-0.0238,-0.0232,-0.024,-0.0205,-0.0192,-0.0144,-0.0074,-0.0071,-0.0018,-0.0005,0.0042,0.0044,0.0043,0.0046,0.002,0.002,0.002,0.002,0.002,0,-0.0046,-0.0064,-0.0095,-0.0103,-0.0146,-0.0179,-0.0227,-0.0242,-0.0276,-0.0308,-0.0273,-0.0277,-0.0202,-0.0158,-0.0093,-0.002,-0.003,0.0033,0.0049,0.0023,0.0023,0.0044,0.0046,0.0021,0.0021,0.0021,0.002,0,-0.0022,-0.0038,-0.0063,-0.0112,-0.0135,-0.0163,-0.0253,-0.0285,-0.0315,-0.0354,-0.0357,-0.0331,-0.0272,-0.0188,-0.0105,-0.0048,0.0022,0.005,0.0022,0.0038,0.0085,0.0085,0.01,0.01,0.0101,0.0101,0.0102,0,-0.0015,-0.0014,-0.0057,-0.0068,-0.0093,-0.0153,-0.0201,-0.0283,-0.0329,-0.0386,-0.0404,-0.0365,-0.0331,-0.0203,-0.011,0.0017,0.0037,0.0075,0.0073,0.0076,0.0091,0.009,0.0088,0.0103,0.0103,0.0103,0.0103,0,0.0006,0.0005,-0.0009,-0.0026,-0.0071,-0.0147,-0.023,-0.0285,-0.0386,-0.0414,-0.0443,-0.0387,-0.0319,-0.0208,-0.0105,-0.0015,0.0051,0.0081,0.0081,0.0079,0.008,0.0094,0.0092,0.0105,0.0105,0.0105,0.0104,0,0.0027,0.0033,0.0039,0.0025,-0.0029,-0.0114,-0.0191,-0.0278,-0.0355,-0.045,-0.0452,-0.0393,-0.0365,-0.0225,-0.0132,-0.0038,-0.0015,0.0014,0.0017,0.0017,-0.0015,-0.0026,-0.0026,0,0,0,0,0,0.0057,0.0092,0.009,0.0065,0.0013,-0.0028,-0.0184,-0.0272,-0.0398,-0.0423,-0.0451,-0.0394,-0.0276,-0.0223,-0.0127,-0.0098,0.0022,0.0019,0.0063,0.0116,0.0113,0.0092,0,0,0,0,0,0,0.0084,0.0102,0.0118,0.0118,0.0108,0.0015,-0.0097,-0.0202,-0.0248,-0.0345,-0.0286,-0.0314,-0.0192,-0.0283,-0.0085,-0.0063,-0.0019,0.0062,0.0065,0.0117,0.0115,0.0113,0.009,0,0,0,0,0]}]]